Location: 761 Underwood Rd, Vestal, NY 13850, USA
(42.0046°N, 76.0259°W)
Time: 08:44:17
(UTC-04:00)

ISS - Pass Details

Date: 21 March 2019
Orbit: 408 x 410 km, 51.6° (Epoch: 18 April)

Event Time Altitude Azimuth Distance (km) Brightness Sun altitude
Rises 19:56:01 0° 202° (SSW) 2,320 0.2 -8.0°
Reaches altitude 10° 19:58:23 10° 185° (S) 1,464 -1.0 -8.4°
Maximum altitude 20:00:57 21° 134° (SE) 970 -2.4 -8.9°
Enters shadow 20:02:57 13° 90° (E) 1,294 -1.9 -9.3°
